When you browse on this site, cookies collect data to enhance your experience and personalize the content and advertising you see.
Visit our Privacy Policy to learn more. By continuing to use the site, you agree to this use of cookies and data.
  • In Switzerland
  • List of Countries
  • For 7 days
  • Water Temperature
  • Satellite Maps
  • Weather Map
  • Weather Widgets
  • user-avatar
    Login

    Hourly Weather Wiktoria

    Today, 25 May, Saturday

    Time Temperature Precipitation Wind Pressure Humidity
    00:00 +14°C° 0 mm 4 mps 750 mmHg 78%
    01:00 +14°C° 0 mm 4 mps 750 mmHg 78%
    02:00 +14°C° 0 mm 3 mps 750 mmHg 77%
    03:00 +14°C° 0 mm 3 mps 750 mmHg 75%
    04:00 +13°C° 0 mm 3 mps 749 mmHg 78%
    05:00 +13°C° 0 mm 3 mps 749 mmHg 75%
    06:00 +13°C° 0 mm 3 mps 749 mmHg 73%
    07:00 +14°C° 0 mm 2 mps 749 mmHg 71%
    08:00 +15°C° 0 mm 2 mps 749 mmHg 70%
    09:00 +16°C° 0 mm 2 mps 749 mmHg 68%
    10:00 +17°C° 0 mm 2 mps 749 mmHg 67%
    11:00 +18°C° 0 mm 3 mps 749 mmHg 64%
    12:00 +19°C° 0 mm 3 mps 748 mmHg 62%
    13:00 +20°C° 0 mm 4 mps 748 mmHg 59%
    14:00 +19°C° 0 mm 4 mps 748 mmHg 60%
    15:00 +19°C° 0 mm 3 mps 747 mmHg 61%
    16:00 +19°C° 0 mm 3 mps 747 mmHg 61%
    17:00 +17°C° 0.1 mm 3 mps 747 mmHg 65%
    18:00 +16°C° 0.1 mm 2 mps 747 mmHg 68%
    19:00 +14°C° 0.1 mm 2 mps 747 mmHg 72%
    20:00 +14°C° 1.7 mm 2 mps 747 mmHg 79%
    21:00 +13°C° 1.7 mm 3 mps 747 mmHg 86%
    22:00 +12°C° 1.7 mm 3 mps 747 mmHg 94%
    23:00 +12°C° 1 mm 3 mps 748 mmHg 93%

    Tomorrow, 26 May, Sunday

    Time Temperature Precipitation Wind Pressure Humidity
    00:00 +11°C° 1 mm 3 mps 748 mmHg 92%
    01:00 +11°C° 1 mm 3 mps 748 mmHg 92%
    02:00 +10°C° 0 mm 3 mps 748 mmHg 93%
    03:00 +9°C° 0 mm 3 mps 749 mmHg 93%
    04:00 +8°C° 0 mm 2 mps 749 mmHg 94%
    05:00 +7°C° 0 mm 2 mps 749 mmHg 94%
    06:00 +7°C° 0 mm 2 mps 749 mmHg 95%
    07:00 +7°C° 0 mm 2 mps 750 mmHg 95%
    08:00 +8°C° 0 mm 3 mps 750 mmHg 90%
    09:00 +9°C° 0 mm 3 mps 750 mmHg 85%
    10:00 +10°C° 0 mm 3 mps 751 mmHg 80%
    11:00 +11°C° 0 mm 4 mps 750 mmHg 74%
    12:00 +12°C° 0 mm 4 mps 749 mmHg 68%
    13:00 +13°C° 0 mm 5 mps 749 mmHg 61%
    14:00 +13°C° 0 mm 4 mps 748 mmHg 62%
    15:00 +13°C° 0 mm 4 mps 748 mmHg 62%
    16:00 +13°C° 0 mm 4 mps 748 mmHg 62%
    17:00 +12°C° 0 mm 4 mps 747 mmHg 62%
    18:00 +12°C° 0 mm 4 mps 747 mmHg 63%
    19:00 +12°C° 0 mm 5 mps 747 mmHg 63%
    20:00 +10°C° 0 mm 5 mps 746 mmHg 64%
    21:00 +10°C° 0 mm 6 mps 746 mmHg 65%
    22:00 +10°C° 0 mm 6 mps 745 mmHg 66%
    23:00 +9°C° 1.2 mm 7 mps 745 mmHg 74%

    Day after tomorrow, 27 May, Monday

    Time Temperature Precipitation Wind Pressure Humidity
    00:00 +9°C° 1.2 mm 7 mps 745 mmHg 81%
    01:00 +8°C° 1.2 mm 7 mps 745 mmHg 88%
    02:00 +7°C° 0.2 mm 6 mps 745 mmHg 88%
    03:00 +6°C° 0.2 mm 5 mps 745 mmHg 87%
    04:00 +5°C° 0.2 mm 5 mps 745 mmHg 87%
    05:00 +5°C° 0 mm 5 mps 746 mmHg 87%
    06:00 +5°C° 0 mm 5 mps 746 mmHg 87%
    07:00 +3°C° 0 mm 5 mps 746 mmHg 87%
    08:00 +4°C° 0 mm 6 mps 747 mmHg 81%
    09:00 +6°C° 0 mm 7 mps 747 mmHg 75%
    10:00 +7°C° 0 mm 8 mps 747 mmHg 69%
    11:00 +9°C° 0.1 mm 8 mps 747 mmHg 63%
    12:00 +10°C° 0.1 mm 8 mps 747 mmHg 56%
    13:00 +11°C° 0.1 mm 8 mps 747 mmHg 49%
    14:00 +10°C° 0 mm 7 mps 748 mmHg 51%
    15:00 +10°C° 0 mm 6 mps 748 mmHg 52%
    16:00 +10°C° 0 mm 5 mps 748 mmHg 53%
    17:00 +10°C° 0 mm 4 mps 749 mmHg 56%
    18:00 +8°C° 0 mm 4 mps 749 mmHg 59%
    19:00 +7°C° 0 mm 4 mps 750 mmHg 63%
    20:00 +7°C° 0 mm 4 mps 750 mmHg 67%
    21:00 +6°C° 0 mm 4 mps 750 mmHg 71%
    22:00 +6°C° 0 mm 4 mps 751 mmHg 76%
    23:00 +7°C° 0 mm 3 mps 750 mmHg 79%

    28 May, Tuesday

    Time Temperature Precipitation Wind Pressure Humidity
    00:00 +5°C° 0 mm 3 mps 750 mmHg 83%
    01:00 +4°C° 0 mm 3 mps 750 mmHg 87%
    02:00 +5°C° 0 mm 3 mps 750 mmHg 85%
    03:00 +5°C° 0 mm 3 mps 749 mmHg 83%
    04:00 +7°C° 0 mm 3 mps 749 mmHg 81%
    05:00 +7°C° 0 mm 3 mps 749 mmHg 84%
    06:00 +7°C° 0 mm 3 mps 749 mmHg 86%
    07:00 +7°C° 0 mm 3 mps 749 mmHg 89%
    08:00 +6°C° 0.1 mm 4 mps 749 mmHg 88%
    09:00 +7°C° 0.1 mm 4 mps 749 mmHg 88%
    10:00 +8°C° 0.1 mm 5 mps 749 mmHg 87%
    11:00 +9°C° 0 mm 6 mps 748 mmHg 84%
    12:00 +10°C° 0 mm 6 mps 748 mmHg 80%
    13:00 +11°C° 0 mm 7 mps 747 mmHg 77%
    14:00 +10°C° 0.2 mm 6 mps 746 mmHg 79%
    15:00 +10°C° 0.2 mm 6 mps 746 mmHg 81%
    16:00 +10°C° 0.2 mm 5 mps 745 mmHg 84%
    17:00 +10°C° 0.3 mm 5 mps 745 mmHg 86%
    18:00 +9°C° 0.3 mm 5 mps 745 mmHg 87%
    19:00 +9°C° 0.3 mm 5 mps 744 mmHg 89%
    20:00 +9°C° 0.2 mm 6 mps 744 mmHg 89%
    21:00 +9°C° 0.2 mm 6 mps 744 mmHg 90%
    22:00 +9°C° 0.2 mm 6 mps 744 mmHg 90%
    23:00 +9°C° 0.3 mm 6 mps 743 mmHg 89%

    29 May, Wednesday

    Time Temperature Precipitation Wind Pressure Humidity
    00:00 +9°C° 0.3 mm 6 mps 743 mmHg 88%
    01:00 +9°C° 0.3 mm 6 mps 743 mmHg 87%
    02:00 +8°C° 0.3 mm 6 mps 742 mmHg 86%
    03:00 +8°C° 0.3 mm 6 mps 742 mmHg 85%
    04:00 +7°C° 0.3 mm 6 mps 742 mmHg 84%
    05:00 +7°C° 0.2 mm 6 mps 742 mmHg 85%
    06:00 +5°C° 0.2 mm 6 mps 743 mmHg 85%
    07:00 +5°C° 0.2 mm 6 mps 743 mmHg 85%
    08:00 +5°C° 0.1 mm 6 mps 743 mmHg 81%
    09:00 +6°C° 0.1 mm 7 mps 744 mmHg 76%
    10:00 +8°C° 0.1 mm 7 mps 744 mmHg 72%
    11:00 +8°C° 0.3 mm 7 mps 744 mmHg 70%
    12:00 +8°C° 0.3 mm 7 mps 744 mmHg 67%
    13:00 +9°C° 0.3 mm 7 mps 744 mmHg 65%
    14:00 +8°C° 0.3 mm 6 mps 744 mmHg 67%
    15:00 +8°C° 0.3 mm 6 mps 744 mmHg 69%
    16:00 +7°C° 0.3 mm 5 mps 744 mmHg 71%
    17:00 +6°C° 0 mm 5 mps 745 mmHg 74%
    18:00 +5°C° 0 mm 4 mps 745 mmHg 77%
    19:00 +4°C° 0 mm 4 mps 746 mmHg 80%
    20:00 +3°C° 0.4 mm 5 mps 746 mmHg 80%
    21:00 +4°C° 0.4 mm 6 mps 746 mmHg 81%
    22:00 +4°C° 0.4 mm 6 mps 746 mmHg 81%
    23:00 +4°C° 0 mm 6 mps 747 mmHg 82%

    30 May, Thursday

    Time Temperature Precipitation Wind Pressure Humidity
    00:00 +4°C° 0 mm 6 mps 747 mmHg 83%
    01:00 +4°C° 0 mm 7 mps 748 mmHg 84%
    02:00 +3°C° 0 mm 5 mps 749 mmHg 86%
    03:00 +3°C° 0 mm 4 mps 749 mmHg 88%
    04:00 +2°C° 0 mm 3 mps 750 mmHg 90%
    05:00 +2°C° 0 mm 3 mps 751 mmHg 90%
    06:00 +2°C° 0 mm 3 mps 752 mmHg 91%
    07:00 +2°C° 0 mm 3 mps 753 mmHg 91%
    08:00 +4°C° 0 mm 4 mps 754 mmHg 85%
    09:00 +6°C° 0 mm 5 mps 754 mmHg 80%
    10:00 +8°C° 0 mm 5 mps 755 mmHg 74%
    11:00 +9°C° 0 mm 5 mps 755 mmHg 69%
    12:00 +10°C° 0 mm 5 mps 755 mmHg 63%
    13:00 +12°C° 0 mm 5 mps 756 mmHg 58%
    14:00 +12°C° 0 mm 5 mps 756 mmHg 60%
    15:00 +10°C° 0 mm 5 mps 756 mmHg 62%
    16:00 +10°C° 0 mm 5 mps 757 mmHg 65%
    17:00 +8°C° 0 mm 4 mps 758 mmHg 71%
    18:00 +7°C° 0 mm 4 mps 758 mmHg 77%
    19:00 +5°C° 0 mm 3 mps 759 mmHg 83%
    20:00 +5°C° 0 mm 3 mps 760 mmHg 85%
    21:00 +4°C° 0 mm 3 mps 760 mmHg 87%
    22:00 +5°C° 0 mm 2 mps 760 mmHg 89%
    23:00 +4°C° 0 mm 2 mps 761 mmHg 90%
    Show more